Tracking 20232 objects as of 20-Jan-2020
HD Live streaming from Space Station
objects crossing your sky now

COSMOS 1275 DEB

Track COSMOS 1275 DEB now!
10-day predictions


NORAD ID: 14441
Int'l Code: 1981-053JL
Perigee: 859.5 km
Apogee: 927.9 km
Inclination: 83.1 °
Period: 102.7 minutes
Semi major axis: 7264 km
RCS: 0.0079 m2 (small)
Launch date: June 4, 1981
Source: Commonwealth of Independent States (former USSR) (CIS)
Launch site: PLESETSK MISSILE AND SPACE COMPLEX (PKMTR)

Note: This is SATELLITE DEBRIS
aabbcc
Your satellite tracking list
Your tracking list is empty




NASA's NSSDC Master Catalog

Two Line Element Set (TLE):
1 14441U 81053JH  20019.60821039 +.00001191 +00000-0 +76202-3 0  9994
2 14441 083.1187 254.6217 0047090 015.4044 344.8547 14.02091939944223
Source of the keplerian elements: AFSPC